Tracking 20475 objects as of 26-Feb-2020
HD Live streaming from Space Station
objects crossing your sky now

SL-14 DEB

Track SL-14 DEB now!
10-day predictions


NORAD ID: 25831
Int'l Code: 1978-100AT
Perigee: 1,162.1 km
Apogee: 1,526.5 km
Inclination: 82.5 °
Period: 112.4 minutes
Semi major axis: 7715 km
RCS: 0.014 m2 (small)
Launch date: October 26, 1978
Source: Commonwealth of Independent States (former USSR) (CIS)
Launch site: PLESETSK MISSILE AND SPACE COMPLEX (PKMTR)

Note: This is SATELLITE DEBRIS
aabbcc
Your satellite tracking list
Your tracking list is empty




NASA's NSSDC Master Catalog

Two Line Element Set (TLE):
1 25831U 78100AT  20015.57784452 -.00009453  00000-0 -36505-1 0  9998
2 25831  82.4740 328.1011 0236138  54.4132 307.8726 12.81065505973920
Source of the keplerian elements: AFSPC